Time,TemperatureF,DewpointF,PressureIn,WindDirection,WindDirectionDegrees,WindSpeedMPH,WindSpeedGustMPH,Humidity,HourlyPrecipIn,Conditions,Clouds,dailyrainin,SoftwareType,DateUTC
2013-07-15 00:01:00,74.0,47.0,29.49,SW,214,0.0,3.0,39,0.00,,,0.00,,2013-07-15 08:01:00,
2013-07-15 00:11:00,74.0,47.0,29.49,SW,214,0.0,3.0,39,0.00,,,0.00,,2013-07-15 08:11:00,
2013-07-15 00:22:00,73.0,47.0,29.50,SW,214,0.0,3.0,40,0.00,,,0.00,,2013-07-15 08:22:00,
2013-07-15 00:32:00,73.0,48.0,29.50,SW,214,0.0,0.0,41,0.00,,,0.00,,2013-07-15 08:32:00,
2013-07-15 00:43:00,72.0,48.0,29.51,SW,214,0.0,0.0,42,0.00,,,0.00,,2013-07-15 08:43:00,
2013-07-15 00:53:00,72.0,48.0,29.51,SW,214,0.0,0.0,42,0.00,,,0.00,,2013-07-15 08:53:00,
2013-07-15 01:01:00,72.0,48.0,29.50,SW,214,0.0,0.0,43,0.00,,,0.00,,2013-07-15 09:01:00,
2013-07-15 01:11:00,71.0,48.0,29.50,SW,214,0.0,0.0,44,0.00,,,0.00,,2013-07-15 09:11:00,
2013-07-15 01:22:00,71.0,48.0,29.50,SW,214,0.0,0.0,44,0.00,,,0.00,,2013-07-15 09:22:00,
2013-07-15 01:32:00,71.0,49.0,29.51,SW,214,0.0,0.0,45,0.00,,,0.00,,2013-07-15 09:32:00,
2013-07-15 01:42:00,70.0,48.0,29.51,SW,214,0.0,0.0,46,0.00,,,0.00,,2013-07-15 09:42:00,
2013-07-15 01:52:00,70.0,48.0,29.51,SW,214,0.0,0.0,46,0.00,,,0.00,,2013-07-15 09:52:00,
2013-07-15 02:02:00,70.0,49.0,29.51,SW,214,0.0,0.0,47,0.00,,,0.00,,2013-07-15 10:02:00,
2013-07-15 02:11:00,69.0,48.0,29.52,SW,214,0.0,0.0,47,0.00,,,0.00,,2013-07-15 10:11:00,
2013-07-15 02:21:00,69.0,48.0,29.52,SW,214,0.0,0.0,47,0.00,,,0.00,,2013-07-15 10:21:00,
2013-07-15 02:32:00,69.0,48.0,29.52,SW,214,0.0,0.0,48,0.00,,,0.00,,2013-07-15 10:32:00,
2013-07-15 02:42:00,69.0,49.0,29.52,SW,214,0.0,0.0,49,0.00,,,0.00,,2013-07-15 10:42:00,
2013-07-15 02:52:00,69.0,49.0,29.52,SW,214,0.0,0.0,49,0.00,,,0.00,,2013-07-15 10:52:00,
2013-07-15 03:01:00,68.0,49.0,29.52,SW,214,0.0,0.0,51,0.00,,,0.00,,2013-07-15 11:01:00,
2013-07-15 03:11:00,68.0,49.0,29.52,SW,214,0.0,0.0,50,0.00,,,0.00,,2013-07-15 11:11:00,
2013-07-15 03:32:00,68.0,49.0,29.52,SW,214,0.0,0.0,51,0.00,,,0.00,,2013-07-15 11:32:00,
2013-07-15 03:42:00,67.0,50.0,29.53,SW,214,0.0,0.0,54,0.00,,,0.00,,2013-07-15 11:42:00,
2013-07-15 03:52:00,67.0,50.0,29.53,SW,214,0.0,0.0,54,0.00,,,0.00,,2013-07-15 11:52:00,
2013-07-15 04:01:00,67.0,50.0,29.53,SW,214,0.0,0.0,55,0.00,,,0.00,,2013-07-15 12:01:00,
2013-07-15 04:11:00,66.0,49.0,29.53,SW,214,0.0,0.0,55,0.00,,,0.00,,2013-07-15 12:11:00,
2013-07-15 04:22:00,66.0,49.0,29.53,SW,214,0.0,0.0,55,0.00,,,0.00,,2013-07-15 12:22:00,
2013-07-15 04:32:00,66.0,50.0,29.54,SW,214,0.0,0.0,56,0.00,,,0.00,,2013-07-15 12:32:00,
2013-07-15 04:42:00,65.0,50.0,29.53,SW,214,0.0,0.0,58,0.00,,,0.00,,2013-07-15 12:42:00,
2013-07-15 04:52:00,65.0,50.0,29.53,SW,214,0.0,0.0,58,0.00,,,0.00,,2013-07-15 12:52:00,
2013-07-15 05:01:00,65.0,50.0,29.53,SW,214,0.0,0.0,58,0.00,,,0.00,,2013-07-15 13:01:00,
2013-07-15 05:11:00,65.0,50.0,29.53,SW,214,0.0,0.0,58,0.00,,,0.00,,2013-07-15 13:11:00,
2013-07-15 05:22:00,65.0,50.0,29.53,SW,214,0.0,0.0,59,0.00,,,0.00,,2013-07-15 13:22:00,
2013-07-15 05:32:00,64.0,50.0,29.54,SW,214,0.0,0.0,60,0.00,,,0.00,,2013-07-15 13:32:00,
2013-07-15 05:43:00,64.0,50.0,29.54,SW,214,0.0,0.0,60,0.00,,,0.00,,2013-07-15 13:43:00,
2013-07-15 05:53:00,64.0,50.0,29.54,SW,214,0.0,0.0,60,0.00,,,0.00,,2013-07-15 13:53:00,
2013-07-15 06:02:00,63.0,49.0,29.54,SW,214,0.0,0.0,61,0.00,,,0.00,,2013-07-15 14:02:00,
2013-07-15 06:11:00,63.0,49.0,29.54,SW,214,0.0,0.0,61,0.00,,,0.00,,2013-07-15 14:11:00,
2013-07-15 06:22:00,63.0,50.0,29.54,SW,214,0.0,0.0,62,0.00,,,0.00,,2013-07-15 14:22:00,
2013-07-15 06:33:00,63.0,50.0,29.54,SW,214,0.0,0.0,63,0.00,,,0.00,,2013-07-15 14:33:00,
2013-07-15 06:42:00,62.0,50.0,29.55,SW,214,0.0,0.0,64,0.00,,,0.00,,2013-07-15 14:42:00,
2013-07-15 06:53:00,62.0,50.0,29.55,SW,214,0.0,0.0,64,0.00,,,0.00,,2013-07-15 14:53:00,
2013-07-15 07:03:00,62.0,50.0,29.55,SW,214,0.0,0.0,65,0.00,,,0.00,,2013-07-15 15:03:00,
2013-07-15 07:11:00,62.0,50.0,29.55,SW,214,0.0,0.0,65,0.00,,,0.00,,2013-07-15 15:11:00,
2013-07-15 07:22:00,62.0,50.0,29.55,SW,214,0.0,0.0,65,0.00,,,0.00,,2013-07-15 15:22:00,
2013-07-15 07:34:00,62.0,50.0,29.55,SW,214,0.0,0.0,65,0.00,,,0.00,,2013-07-15 15:34:00,
2013-07-15 07:43:00,63.0,51.0,29.56,SW,214,0.0,0.0,65,0.00,,,0.00,,2013-07-15 15:43:00,
2013-07-15 07:53:00,63.0,51.0,29.56,SW,214,0.0,0.0,66,0.00,,,0.00,,2013-07-15 15:53:00,
2013-07-15 08:02:00,63.0,51.0,29.57,SW,214,0.0,0.0,65,0.00,,,0.00,,2013-07-15 16:02:00,
2013-07-15 08:11:00,63.0,51.0,29.57,SW,214,0.0,0.0,65,0.00,,,0.00,,2013-07-15 16:11:00,
2013-07-15 08:22:00,64.0,52.0,29.57,SW,214,0.0,0.0,65,0.00,,,0.00,,2013-07-15 16:22:00,
2013-07-15 08:32:00,64.0,52.0,29.57,SW,214,0.0,0.0,65,0.00,,,0.00,,2013-07-15 16:32:00,
2013-07-15 08:43:00,64.0,52.0,29.57,SW,214,0.0,0.0,65,0.00,,,0.00,,2013-07-15 16:43:00,
2013-07-15 08:52:00,64.0,52.0,29.57,SW,214,0.0,0.0,66,0.00,,,0.00,,2013-07-15 16:52:00,
2013-07-15 09:01:00,64.0,52.0,29.57,SW,214,0.0,0.0,66,0.00,,,0.00,,2013-07-15 17:01:00,
2013-07-15 09:12:00,64.0,52.0,29.57,SW,214,0.0,0.0,66,0.00,,,0.00,,2013-07-15 17:12:00,
2013-07-15 09:22:00,64.0,52.0,29.57,SW,214,0.0,0.0,66,0.00,,,0.00,,2013-07-15 17:22:00,
2013-07-15 09:33:00,65.0,53.0,29.58,SW,214,0.0,0.0,66,0.00,,,0.00,,2013-07-15 17:33:00,
2013-07-15 09:44:00,65.0,54.0,29.58,SW,218,0.0,0.0,67,0.00,,,0.00,,2013-07-15 17:44:00,
2013-07-15 09:52:00,67.0,54.0,29.58,WSW,243,0.0,0.0,63,0.00,,,0.00,,2013-07-15 17:52:00,
2013-07-15 10:02:00,67.0,54.0,29.58,WSW,243,0.0,0.0,63,0.00,,,0.00,,2013-07-15 18:02:00,
2013-07-15 10:12:00,68.0,54.0,29.58,SW,230,0.0,0.0,62,0.00,,,0.00,,2013-07-15 18:12:00,
2013-07-15 10:32:00,69.0,55.0,29.58,NNW,334,0.0,0.0,60,0.00,,,0.00,,2013-07-15 18:32:00,
2013-07-15 10:45:00,69.0,54.0,29.58,NNW,334,0.0,0.0,59,0.00,,,0.00,,2013-07-15 18:45:00,
2013-07-15 10:52:00,69.0,54.0,29.58,SW,235,0.0,0.0,58,0.00,,,0.00,,2013-07-15 18:52:00,
2013-07-15 11:02:00,69.0,54.0,29.58,SW,235,0.0,0.0,58,0.00,,,0.00,,2013-07-15 19:02:00,
2013-07-15 11:11:00,70.0,55.0,29.58,SW,235,0.0,0.0,58,0.00,,,0.00,,2013-07-15 19:11:00,
2013-07-15 11:52:00,71.0,54.0,29.58,South,182,0.0,0.0,55,0.00,,,0.00,,2013-07-15 19:52:00,
2013-07-15 12:02:00,71.0,54.0,29.58,South,182,0.0,0.0,55,0.00,,,0.00,,2013-07-15 20:02:00,
2013-07-15 12:12:00,71.0,52.0,29.58,SW,229,0.0,0.0,52,0.00,,,0.00,,2013-07-15 20:12:00,
2013-07-15 12:22:00,71.0,52.0,29.58,SW,229,0.0,0.0,52,0.00,,,0.00,,2013-07-15 20:22:00,
2013-07-15 12:32:00,71.0,52.0,29.58,SW,229,0.0,0.0,52,0.00,,,0.00,,2013-07-15 20:32:00,
2013-07-15 12:43:00,72.0,52.0,29.58,WNW,286,0.0,0.0,49,0.00,,,0.00,,2013-07-15 20:43:00,
2013-07-15 12:52:00,72.0,52.0,29.58,WNW,286,0.0,0.0,50,0.00,,,0.00,,2013-07-15 20:52:00,
2013-07-15 13:02:00,72.0,52.0,29.58,WNW,286,0.0,0.0,50,0.00,,,0.00,,2013-07-15 21:02:00,
2013-07-15 13:12:00,72.0,52.0,29.57,SW,234,0.0,0.0,50,0.00,,,0.00,,2013-07-15 21:12:00,
2013-07-15 13:32:00,74.0,52.0,29.57,WNW,284,0.0,0.0,47,0.00,,,0.00,,2013-07-15 21:32:00,
2013-07-15 13:44:00,76.0,52.0,29.57,WNW,303,0.0,0.0,44,0.00,,,0.00,,2013-07-15 21:44:00,
2013-07-15 13:52:00,77.0,51.0,29.57,SW,229,0.0,0.0,40,0.00,,,0.00,,2013-07-15 21:52:00,
2013-07-15 14:12:00,79.0,53.0,29.57,SW,226,0.0,0.0,41,0.00,,,0.00,,2013-07-15 22:12:00,
2013-07-15 14:33:00,80.0,53.0,29.56,SSE,155,0.0,0.0,39,0.00,,,0.00,,2013-07-15 22:33:00,
2013-07-15 14:43:00,80.0,53.0,29.56,NW,306,0.0,0.0,39,0.00,,,0.00,,2013-07-15 22:43:00,
2013-07-15 14:52:00,80.0,53.0,29.56,NW,306,0.0,0.0,39,0.00,,,0.00,,2013-07-15 22:52:00,
2013-07-15 15:02:00,80.0,51.0,29.55,NNW,337,0.0,0.0,36,0.00,,,0.00,,2013-07-15 23:02:00,
2013-07-15 15:12:00,80.0,53.0,29.55,WNW,286,0.0,0.0,39,0.00,,,0.00,,2013-07-15 23:12:00,
2013-07-15 15:33:00,79.0,52.0,29.54,SSW,210,0.0,0.0,39,0.00,,,0.00,,2013-07-15 23:33:00,
2013-07-15 15:43:00,79.0,50.0,29.54,WSW,249,0.0,0.0,37,0.00,,,0.00,,2013-07-15 23:43:00,
2013-07-15 15:53:00,78.0,50.0,29.53,South,187,0.0,0.0,37,0.00,,,0.00,,2013-07-15 23:53:00,
2013-07-15 16:02:00,78.0,50.0,29.53,South,187,0.0,0.0,37,0.00,,,0.00,,2013-07-16 00:02:00,
2013-07-15 16:12:00,78.0,50.0,29.53,SW,224,0.0,0.0,38,0.00,,,0.00,,2013-07-16 00:12:00,
2013-07-15 16:22:00,78.0,50.0,29.53,SW,224,0.0,0.0,38,0.00,,,0.00,,2013-07-16 00:22:00,
2013-07-15 16:43:00,78.0,51.0,29.52,South,185,0.0,0.0,39,0.00,,,0.00,,2013-07-16 00:43:00,
2013-07-15 16:52:00,78.0,51.0,29.52,South,185,0.0,0.0,39,0.00,,,0.00,,2013-07-16 00:52:00,
2013-07-15 17:03:00,78.0,51.0,29.52,South,185,0.0,0.0,39,0.00,,,0.00,,2013-07-16 01:03:00,
2013-07-15 17:12:00,78.0,49.0,29.51,North,0,0.0,0.0,36,0.00,,,0.00,,2013-07-16 01:12:00,
2013-07-15 17:33:00,78.0,50.0,29.51,WSW,240,0.0,0.0,37,0.00,,,0.00,,2013-07-16 01:33:00,
2013-07-15 17:43:00,78.0,48.0,29.51,South,170,0.0,0.0,35,0.00,,,0.00,,2013-07-16 01:43:00,
2013-07-15 18:02:00,78.0,49.0,29.51,South,186,0.0,0.0,36,0.00,,,0.00,,2013-07-16 02:02:00,
2013-07-15 18:11:00,78.0,48.0,29.50,West,280,0.0,0.0,35,0.00,,,0.00,,2013-07-16 02:11:00,
2013-07-15 18:44:00,78.0,50.0,29.50,West,267,0.0,0.0,37,0.00,,,0.00,,2013-07-16 02:44:00,
2013-07-15 19:02:00,78.0,50.0,29.50,WSW,245,0.0,0.0,37,0.00,,,0.00,,2013-07-16 03:02:00,
2013-07-15 19:12:00,77.0,49.0,29.50,South,183,0.0,0.0,38,0.00,,,0.00,,2013-07-16 03:12:00,
2013-07-15 19:33:00,77.0,49.0,29.50,WSW,246,0.0,4.0,38,0.00,,,0.00,,2013-07-16 03:33:00,
2013-07-15 19:53:00,76.0,49.0,29.50,West,269,0.0,4.0,39,0.00,,,0.00,,2013-07-16 03:53:00,
2013-07-15 20:12:00,76.0,49.0,29.50,SSE,163,0.0,4.0,39,0.00,,,0.00,,2013-07-16 04:12:00,
2013-07-15 20:22:00,76.0,49.0,29.50,SSE,163,0.0,4.0,39,0.00,,,0.00,,2013-07-16 04:22:00,
2013-07-15 20:32:00,75.0,49.0,29.50,North,356,0.0,4.0,40,0.00,,,0.00,,2013-07-16 04:32:00,
2013-07-15 20:43:00,74.0,50.0,29.50,SW,233,0.0,4.0,43,0.00,,,0.00,,2013-07-16 04:43:00,
2013-07-15 20:53:00,74.0,50.0,29.50,SW,233,0.0,4.0,43,0.00,,,0.00,,2013-07-16 04:53:00,
2013-07-15 21:01:00,74.0,50.0,29.50,SW,233,0.0,4.0,43,0.00,,,0.00,,2013-07-16 05:01:00,
2013-07-15 21:11:00,73.0,50.0,29.50,SW,233,0.0,4.0,45,0.00,,,0.00,,2013-07-16 05:11:00,
2013-07-15 21:21:00,72.0,51.0,29.50,SW,233,0.0,4.0,47,0.00,,,0.00,,2013-07-16 05:21:00,
2013-07-15 21:32:00,72.0,51.0,29.50,SW,233,0.0,4.0,47,0.00,,,0.00,,2013-07-16 05:32:00,
2013-07-15 21:43:00,72.0,51.0,29.50,SW,233,0.0,4.0,48,0.00,,,0.00,,2013-07-16 05:43:00,
2013-07-15 21:52:00,72.0,51.0,29.50,SW,233,0.0,4.0,48,0.00,,,0.00,,2013-07-16 05:52:00,
2013-07-15 22:01:00,72.0,51.0,29.50,SW,233,0.0,4.0,48,0.00,,,0.00,,2013-07-16 06:01:00,
2013-07-15 22:11:00,71.0,51.0,29.50,SW,233,0.0,4.0,49,0.00,,,0.00,,2013-07-16 06:11:00,
2013-07-15 22:21:00,71.0,51.0,29.50,SW,233,0.0,4.0,49,0.00,,,0.00,,2013-07-16 06:21:00,
2013-07-15 22:31:00,71.0,51.0,29.50,SW,233,0.0,4.0,50,0.00,,,0.00,,2013-07-16 06:31:00,
2013-07-15 22:43:00,71.0,52.0,29.50,SW,233,0.0,4.0,51,0.00,,,0.00,,2013-07-16 06:43:00,
2013-07-15 22:52:00,70.0,51.0,29.51,SW,233,0.0,4.0,51,0.00,,,0.00,,2013-07-16 06:52:00,
2013-07-15 23:01:00,70.0,51.0,29.51,SW,233,0.0,4.0,51,0.00,,,0.00,,2013-07-16 07:01:00,
2013-07-15 23:11:00,70.0,51.0,29.51,SW,233,0.0,4.0,51,0.00,,,0.00,,2013-07-16 07:11:00,
2013-07-15 23:32:00,69.0,51.0,29.51,SW,233,0.0,4.0,53,0.00,,,0.00,,2013-07-16 07:32:00,
2013-07-15 23:43:00,68.0,50.0,29.51,SW,233,0.0,4.0,53,0.00,,,0.00,,2013-07-16 07:43:00,
2013-07-15 23:52:00,68.0,51.0,29.51,SW,233,0.0,4.0,54,0.00,,,0.00,,2013-07-16 07:52:00,